This demonstration page uses our WeatherBlox Daily Observations layout. Learn more.

41.55636, -103.73856

Hourly Observations for August 27, 2015

Temp ( °F °C ) Dew Point ( °F °C ) Humidity (%) Winds ( mph kmh ) Pressure ( in mb ) Visibility ( mi km ) Precip ( " mm )
12:53 am 00:53 Clear 65 18.3 53 11.7 66 66 NW 7 11 29.84 1011 10 16.0934 0 0
1:53 am 01:53 Clear 65 18.3 52 11.1 63 63 WNW 9 15 29.85 1011 10 16.0934 0 0
2:53 am 02:53 Clear 62 16.7 53 11.7 73 73 WNW 5 7 29.87 1012 10 16.0934 0 0
3:53 am 03:53 Clear 68 20 63 17.2 84 84 N 14 22 29.85 1011 10 16.0934 0 0
4:45 am 04:45 Mostly Cloudy 68 20 64 17.8 87 87 Calm 29.85 1011 10 16.0934 0 0
4:53 am 04:53 Mostly Cloudy 68 20 64 17.8 87 87 WNW 5 7 29.86 1011 10 16.0934 0 0
5:53 am 05:53 Partly Cloudy 67 19.4 63 17.2 87 87 NNW 6 9 29.86 1011 10 16.0934 0 0
6:20 am 06:20 Mostly Cloudy 66 19 63 17 88 88 WNW 6 9 29.85 1011 9 14.48406 0 0
6:30 am 06:30 Partly Cloudy 66 19 63 17 88 88 WNW 6 9 29.85 1011 8 12.87472 0 0
6:53 am 06:53 Sunny 65 18.3 62 16.7 90 90 WNW 8 13 29.89 1012 8 12.87472 0 0
7:53 am 07:53 Sunny 68 20 63 17.2 84 84 WNW 10 17 29.91 1013 9 14.48406 0 0
8:53 am 08:53 Sunny 72 22.2 62 16.7 71 71 NNW 16 26 29.91 1013 10 16.0934 0 0
9:53 am 09:53 Sunny 77 25 61 16.1 58 58 NW 14 22 29.89 1012 10 16.0934 0 0
10:53 am 10:53 Sunny 76 24.4 58 14.4 54 54 WNW 13 20 29.91 1013 10 16.0934 0 0
11:53 am 11:53 Sunny 84 28.9 62 16.7 48 48 NW 16 26 29.89 1012 10 16.0934 0 0
12:53 pm 12:53 Sunny 84 28.9 55 12.8 37 37 N 20 31 29.88 1012 10 16.0934 0 0
1:53 pm 13:53 Sunny 86 30 55 12.8 35 35 NNW 16 26 29.88 1012 10 16.0934 0 0
2:53 pm 14:53 Partly Cloudy 83 28.3 55 12.8 38 38 N 15 24 29.9 1013 10 16.0934 0 0
3:53 pm 15:53 Mostly Sunny 83 28.3 55 12.8 38 38 N 13 20 29.89 1012 10 16.0934 0 0
4:53 pm 16:53 Mostly Sunny 84 28.9 56 13.3 38 38 NNE 13 20 29.88 1012 10 16.0934 0 0
5:53 pm 17:53 Sunny 82 27.8 54 12.2 38 38 N 10 17 29.89 1012 10 16.0934 0 0
6:53 pm 18:53 Sunny 76 24.4 56 13.3 50 50 NNE 8 13 29.9 1013 10 16.0934 0 0
7:53 pm 19:53 Clear 68 20 57 13.9 68 68 NNE 7 11 29.92 1013 10 16.0934 0 0
8:53 pm 20:53 Clear 65 18.3 57 13.9 76 76 NE 3 6 29.94 1014 10 16.0934 0 0
9:53 pm 21:53 Clear 66 18.9 55 12.8 68 68 Calm 29.94 1014 10 16.0934 0 0
10:53 pm 22:53 Clear 65 18.3 57 13.9 76 76 Calm 29.95 1014 10 16.0934 0 0
11:53 pm 23:53 Clear 62 16.7 56 13.3 80 80 N 5 7 29.94 1014 10 16.0934 0 0

Powered by AerisWeather